NOAA 17 DEB, 48170

Orbit data source: Space-Track

NOAA 17 DEB, 48170 is space debris in SSO originally from a launch on Mon, 24 Jun 2002 UTC launched from the Air Force Western Test Range (AFWTR). Debris objects in space refer to the collection of defunct objects orbiting the Earth. Examples of debris include non-operational satellites, rocket bodies, and fragments generated from explosions, collisions, or faulty payload assembly.

Loading next visibility...
Identifier
48170, 2002-032L
Orbit
SSO
Country
Flag of USUS
Related business
Manufacturer
Unknown
Mission
Spacecraft
Bus & Motor
Unknown
Mass
Unknown
Launch date (UTC)
2002-06-24 (23 years ago)
Launch vehicle
Unknown
Launch site
Air Force Western Test Range (AFWTR)
Object type
Payload
Rocket body
Debris
Shape & HBR
Unknown shape, 0.1 m
Radar Cross Section
Small (<0.1 m²)

Expand to show TLE details & history
Last TLE update: 2 days ago

TLE from 2 days ago
0 NOAA 17 DEB
1 48170U 02032L   25348.13824356  .00137013  00000-0  60280-2 0  9994
2 48170  98.7624  58.7657 0010917 102.1344 258.1111 15.21201756252760
Epoch: 2025-12-14T03:19Z
TLE epoch observation values (Epoch: 2025-12-14T03:19:04.243Z)
Latitude
-0.00006°
Longitude
-74.05744°
Altitude
506.82 km
Speed
7.61 km/s
True Right ascension
03h 55m 03s
True Declination
0° 00' 00"
Sunlit
Object was in full shadow at epoch
Visualization orbit readout
Latitude
Unknown
Longitude
Unknown
Altitude
Unknown
Speed
Unknown
Apparent Right ascension
Unknown
Apparent Declination
Unknown
Sunlit
N/A
Visualization observer readout
Local Sidereal Time
15:07:29
Azimuth
Unknown
Elevation
Unknown
Doppler factor
Unknown
Orbital elements
Apogee altitude
506.75 km
Perigee altitude
491.734 km
Semi-major axis
6,877.379 km
Eccentricity
0.00109
Inclination
98.7624°
RAAN
58.7657°
Arg. of periapsis
102.1344°
True anomaly
257.98872°
Mean anomaly
258.1111°
Eccentric anomaly
258.04991°
Mean motion
3.80547 °/min
Orbital period
94.6 mins
BSTAR
0.006028
Loading maneuver chart data...
Computing Atmospheric mass density...
Loading historical data...
Loading historical data...
Loading historical data...
Loading historical data...
Loading historical data...
Loading historical data...
Loading historical data...

Documentation

Showing up to 5 results
|